| time (UTC) | temp F | wind direction | speed knots | gust knots | rain 1hr in | rain 24hr in | rain mn in | humidity % | barometer mb |
| 20260503200303 | 0 | 341 | 0.0 | 0.0 | 0.00 | 0.00 | 0.00 | 1019.1 | |
| 20260503200203 | 64 | 244 | 2.6 | 7.0 | 0.00 | 0.00 | 0.00 | 35 | 1017.9 |
| 20260503200035 | 55 | 296 | 2.6 | 4.3 | 0.00 | 0.02 | 0.02 | 86 | 1013.1 |
| 20260503195801 | 0 | 242 | 2.6 | 2.6 | 0.00 | 0.00 | 0.00 | 1019.2 | |
| 20260503195704 | 64 | 247 | 5.2 | 8.7 | 0.00 | 0.00 | 0.00 | 36 | 1017.9 |
| 20260503195258 | 0 | 33 | 2.6 | 2.6 | 0.00 | 0.00 | 0.00 | 1019.4 | |
| 20260503195203 | 65 | 280 | 1.7 | 6.1 | 0.00 | 0.00 | 0.00 | 36 | 1018.0 |
| 20260503194755 | 0 | 71 | 1.7 | 2.6 | 0.00 | 0.00 | 0.00 | 1019.5 | |
| 20260503194703 | 65 | 254 | 4.3 | 10.4 | 0.00 | 0.00 | 0.00 | 36 | 1018.0 |
| 20260503194533 | 56 | 294 | 2.6 | 3.5 | 0.00 | 0.02 | 0.02 | 86 | 1012.9 |
| 20260503194251 | 0 | 38 | 1.7 | 1.7 | 0.00 | 0.00 | 0.00 | 1019.5 | |
| 20260503194203 | 64 | 297 | 3.5 | 10.4 | 0.00 | 0.00 | 0.00 | 37 | 1018.1 |
| 20260503193747 | 0 | 0 | 0.0 | 0.9 | 0.00 | 0.00 | 0.00 | 1019.5 | |
| 20260503193243 | 0 | 245 | 0.9 | 1.7 | 0.00 | 0.00 | 0.00 | 1019.7 | |
| 20260503193204 | 64 | 351 | 3.5 | 12.2 | 0.00 | 0.00 | 0.00 | 37 | 1018.1 |
| 20260503193031 | 57 | 303 | 2.6 | 3.5 | 0.00 | 0.02 | 0.02 | 85 | 1012.7 |
| 20260503192739 | 0 | 277 | 1.7 | 2.6 | 0.00 | 0.00 | 0.00 | 1019.8 | |
| 20260503192703 | 63 | 250 | 7.0 | 15.6 | 0.00 | 0.00 | 0.00 | 38 | 1018.3 |
| 20260503192234 | 0 | 33 | 1.7 | 1.7 | 0.00 | 0.00 | 0.00 | 1019.7 | |
| 20260503192204 | 64 | 251 | 4.3 | 8.7 | 0.00 | 0.00 | 0.00 | 36 | 1018.4 |
| 20260503191731 | 0 | 65 | 0.9 | 0.9 | 0.00 | 0.00 | 0.00 | 1019.8 | |
| 20260503191703 | 62 | 297 | 5.2 | 12.2 | 0.00 | 0.00 | 0.00 | 38 | 1018.5 |
| 20260503191531 | 58 | 300 | 3.5 | 5.2 | 0.00 | 0.02 | 0.02 | 83 | 1012.4 |
| 20260503191228 | 0 | 344 | 1.7 | 2.6 | 0.00 | 0.00 | 0.00 | 1020.0 | |
| 20260503190726 | 0 | 342 | 0.9 | 0.9 | 0.00 | 0.00 | 0.00 | 1020.0 | |
| 20260503190704 | 63 | 244 | 5.2 | 12.2 | 0.00 | 0.00 | 0.00 | 37 | 1018.5 |
| 20260503190222 | 0 | 50 | 0.9 | 1.7 | 0.00 | 0.00 | 0.00 | 1020.2 | |
| 20260503190204 | 64 | 308 | 4.3 | 7.0 | 0.00 | 0.00 | 0.00 | 37 | 1018.6 |
| 20260503190035 | 59 | 299 | 2.6 | 7.0 | 0.00 | 0.02 | 0.02 | 81 | 1012.5 |
| 20260503185719 | 0 | 84 | 0.9 | 0.9 | 0.00 | 0.00 | 0.00 | 1020.3 | |
| 20260503185704 | 63 | 287 | 3.5 | 13.9 | 0.00 | 0.00 | 0.00 | 38 | 1018.7 |
| 20260503185215 | 0 | 309 | 2.6 | 4.3 | 0.00 | 0.00 | 0.00 | 1020.5 | |
| 20260503185204 | 62 | 275 | 6.1 | 12.2 | 0.00 | 0.00 | 0.00 | 40 | 1018.7 |
| 20260503184709 | 0 | 25 | 0.9 | 1.7 | 0.00 | 0.00 | 0.00 | 1020.4 | |
| 20260503184703 | 60 | 226 | 7.0 | 19.1 | 0.00 | 0.00 | 0.00 | 38 | 1018.7 |
| 20260503184539 | 61 | 290 | 2.6 | 7.8 | 0.00 | 0.02 | 0.02 | 80 | 1012.5 |
| 20260503184206 | 0 | 56 | 1.7 | 2.6 | 0.00 | 0.00 | 0.00 | 1020.5 | |
| 20260503184204 | 62 | 258 | 5.2 | 13.0 | 0.00 | 0.00 | 0.00 | 39 | 1018.7 |
| 20260503183703 | 0 | 16 | 3.5 | 4.3 | 0.00 | 0.00 | 0.00 | 1020.5 | |
| 20260503183204 | 62 | 261 | 6.1 | 11.3 | 0.00 | 0.00 | 0.00 | 38 | 1018.8 |
| 20260503183200 | 0 | 306 | 0.0 | 0.0 | 0.00 | 0.00 | 0.00 | 1020.6 | |
| 20260503183029 | 61 | 300 | 4.3 | 7.8 | 0.00 | 0.02 | 0.02 | 79 | 1012.4 |
| 20260503182704 | 63 | 317 | 1.7 | 7.0 | 0.00 | 0.00 | 0.00 | 41 | 1018.7 |
| 20260503182658 | 0 | 281 | 1.7 | 1.7 | 0.00 | 0.00 | 0.00 | 1020.8 | |
| 20260503182203 | 63 | 342 | 2.6 | 8.7 | 0.00 | 0.00 | 0.00 | 37 | 1018.7 |
| 20260503182156 | 0 | 27 | 2.6 | 2.6 | 0.00 | 0.00 | 0.00 | 1020.6 | |
| 20260503181703 | 62 | 237 | 4.3 | 12.2 | 0.00 | 0.00 | 0.00 | 40 | 1018.9 |
| 20260503181652 | 0 | 262 | 1.7 | 1.7 | 0.00 | 0.00 | 0.00 | 1020.8 | |
| 20260503181529 | 62 | 311 | 3.5 | 7.0 | 0.00 | 0.02 | 0.02 | 78 | 1012.4 |
| 20260503181204 | 62 | 262 | 7.0 | 12.2 | 0.00 | 0.00 | 0.00 | 39 | 1019.0 |
| 20260503181149 | 0 | 121 | 2.6 | 2.6 | 0.00 | 0.00 | 0.00 | 1020.9 | |
| 20260503180703 | 62 | 266 | 3.5 | 15.6 | 0.00 | 0.00 | 0.00 | 38 | 1019.0 |
| 20260503180646 | 0 | 35 | 0.9 | 2.6 | 0.00 | 0.00 | 0.00 | 1020.8 | |
| 20260503180144 | 0 | 18 | 1.7 | 4.3 | 0.00 | 0.00 | 0.00 | 1020.9 | |
| 20260503180035 | 63 | 308 | 3.5 | 5.2 | 0.00 | 0.02 | 0.02 | 78 | 1012.3 |
| 20260503175641 | 0 | 352 | 1.7 | 1.7 | 0.00 | 0.00 | 0.00 | 1020.8 | |
| 20260503175203 | 62 | 247 | 4.3 | 8.7 | 0.00 | 0.00 | 0.00 | 40 | 1018.8 |
| 20260503175138 | 0 | 267 | 1.7 | 2.6 | 0.00 | 0.00 | 0.00 | 1020.7 | |
| 20260503174704 | 61 | 240 | 5.2 | 13.0 | 0.00 | 0.00 | 0.00 | 41 | 1019.0 |
| 20260503174634 | 0 | 64 | 0.9 | 0.9 | 0.00 | 0.00 | 0.00 | 1020.9 | |
| 20260503174532 | 63 | 347 | 2.6 | 7.8 | 0.00 | 0.02 | 0.02 | 77 | 1012.4 |
| 20260503174204 | 61 | 292 | 4.3 | 13.9 | 0.00 | 0.00 | 0.00 | 41 | 1019.0 |
| 20260503174132 | 0 | 9 | 0.9 | 0.9 | 0.00 | 0.00 | 0.00 | 1021.1 | |
| 20260503173704 | 61 | 238 | 6.1 | 15.6 | 0.00 | 0.01 | 0.00 | 39 | 1019.1 |
| 20260503173627 | 0 | 31 | 1.7 | 2.6 | 0.00 | 0.00 | 0.00 | 1021.0 | |
| 20260503173204 | 60 | 244 | 7.0 | 13.0 | 0.00 | 0.01 | 0.00 | 40 | 1019.2 |
| 20260503173123 | 0 | 311 | 3.5 | 6.1 | 0.00 | 0.00 | 0.00 | 1021.2 | |
| 20260503173034 | 64 | 315 | 3.5 | 7.8 | 0.00 | 0.02 | 0.02 | 78 | 1012.2 |
| 20260503172703 | 62 | 252 | 5.2 | 17.4 | 0.00 | 0.01 | 0.00 | 42 | 1019.1 |
| 20260503172620 | 0 | 256 | 2.6 | 5.2 | 0.00 | 0.00 | 0.00 | 1021.1 | |
| 20260503172118 | 0 | 41 | 1.7 | 1.7 | 0.00 | 0.00 | 0.00 | 1021.2 | |
| 20260503171614 | 0 | 298 | 1.7 | 1.7 | 0.00 | 0.00 | 0.00 | 1021.4 | |
| 20260503171529 | 63 | 317 | 4.3 | 7.8 | 0.00 | 0.02 | 0.02 | 79 | 1012.2 |
| 20260503171203 | 61 | 275 | 6.1 | 13.9 | 0.00 | 0.02 | 0.00 | 42 | 1019.3 |
| 20260503171112 | 0 | 350 | 0.9 | 1.7 | 0.00 | 0.00 | 0.00 | 1021.3 | |
| 20260503170704 | 60 | 235 | 10.4 | 17.4 | 0.00 | 0.02 | 0.00 | 41 | 1019.1 |
| 20260503170609 | 0 | 65 | 0.9 | 0.9 | 0.00 | 0.00 | 0.00 | 1021.5 | |
| 20260503170204 | 61 | 253 | 6.1 | 11.3 | 0.00 | 0.02 | 0.00 | 42 | 1019.2 |
| 20260503170105 | 0 | 62 | 0.9 | 1.7 | 0.00 | 0.00 | 0.00 | 1021.4 | |
| 20260503160204 | 59 | 245 | 4.3 | 10.4 | 0.00 | 0.05 | 0.00 | 44 | 1019.6 |
| 20260503151000 | 0 | 43 | 0.9 | 1.7 | 0.00 | 0.00 | 0.00 | 1022.4 | |
| 20260503150704 | 57 | 274 | 2.6 | 10.4 | 0.00 | 0.07 | 0.00 | 45 | 1019.8 |
| 20260503150456 | 0 | 121 | 1.7 | 2.6 | 0.00 | 0.00 | 0.00 | 1022.3 | |
| 20260503150204 | 57 | 237 | 5.2 | 11.3 | 0.00 | 0.07 | 0.00 | 44 | 1019.8 |
| 20260503140203 | 56 | 267 | 6.1 | 13.9 | 0.00 | 0.07 | 0.00 | 49 | 1019.6 |
| 20260503131349 | 0 | 28 | 0.0 | 0.0 | 0.00 | 0.00 | 0.00 | 1021.4 | |
| 20260503131204 | 56 | 319 | 2.6 | 7.8 | 0.00 | 0.08 | 0.00 | 49 | 1019.2 |
| 20260503130847 | 0 | 36 | 0.0 | 0.0 | 0.00 | 0.00 | 0.00 | 1021.4 | |
| 20260503130704 | 56 | 293 | 1.7 | 7.8 | 0.00 | 0.08 | 0.00 | 51 | 1019.2 |
| 20260503130344 | 0 | 23 | 0.0 | 0.0 | 0.00 | 0.00 | 0.00 | 1021.3 | |
| 20260503130203 | 55 | 328 | 2.6 | 7.8 | 0.00 | 0.08 | 0.00 | 50 | 1019.2 |
| 20260503110738 | 0 | 296 | 0.0 | 0.0 | 0.00 | 0.00 | 0.00 | 1020.5 | |
| 20260503110704 | 51 | 329 | 4.3 | 7.0 | 0.00 | 0.09 | 0.00 | 54 | 1017.8 |
| 20260503110236 | 0 | 351 | 0.0 | 0.0 | 0.00 | 0.00 | 0.00 | 1020.4 | |
| 20260503110203 | 51 | 312 | 4.3 | 7.0 | 0.00 | 0.09 | 0.00 | 54 | 1017.8 |
| 20260503100204 | 47 | 267 | 1.7 | 4.3 | 0.00 | 0.09 | 0.00 | 80 | 1016.5 |
| 20260503100202 | 0 | 315 | 0.0 | 0.0 | 0.00 | 0.00 | 0.00 | 1020.1 | |
| 20260503090204 | 46 | 272 | 1.7 | 1.7 | 0.00 | 0.09 | 0.00 | 87 | 1015.8 |
| 20260503090121 | 0 | 334 | 0.0 | 0.0 | 0.00 | 0.00 | 0.00 | 1019.7 | |
| 20260503090117 | 63 | 234 | 6.1 | 9.6 | 0.00 | 0.05 | 0.01 | 85 | 1013.4 |
| 20260503081601 | 64 | 273 | 5.2 | 9.6 | 0.00 | 0.06 | 0.01 | 86 | 1013.3 |
| 20260503081556 | 0 | 26 | 0.0 | 0.0 | 0.00 | 0.00 | 0.00 | 1019.5 | |
| 20260503081203 | 46 | 260 | 0.9 | 1.7 | 0.00 | 0.09 | 0.00 | 86 | 1015.4 |
| 20260503081054 | 0 | 8 | 0.0 | 0.0 | 0.00 | 0.00 | 0.00 | 1019.4 | |
| 20260503080703 | 46 | 254 | 0.9 | 1.7 | 0.00 | 0.09 | 0.00 | 85 | 1015.2 |
| 20260503080549 | 0 | 355 | 0.0 | 0.0 | 0.00 | 0.00 | 0.00 | 1019.4 | |
| 20260503080203 | 46 | 268 | 1.7 | 1.7 | 0.00 | 0.09 | 0.00 | 85 | 1015.1 |
| 20260503080107 | 64 | 273 | 5.2 | 7.0 | 0.00 | 0.06 | 0.01 | 88 | 1013.2 |
| 20260503072703 | 47 | 271 | 1.7 | 1.7 | 0.00 | 0.09 | 0.00 | 85 | 1014.8 |
| 20260503072523 | 0 | 351 | 0.0 | 0.0 | 0.00 | 0.00 | 0.00 | 1019.1 | |
| 20260503072204 | 46 | 267 | 1.7 | 2.6 | 0.00 | 0.09 | 0.00 | 85 | 1014.6 |
| 20260503072020 | 0 | 359 | 0.0 | 0.0 | 0.00 | 0.00 | 0.00 | 1019.2 | |
| 20260503071703 | 46 | 269 | 1.7 | 2.6 | 0.00 | 0.09 | 0.00 | 86 | 1014.7 |
| 20260503071604 | 61 | 223 | 4.3 | 6.1 | 0.00 | 0.08 | 0.01 | 91 | 1013.0 |
| 20260503071517 | 0 | 23 | 0.0 | 0.0 | 0.00 | 0.00 | 0.00 | 1019.2 | |
| 20260503071203 | 46 | 279 | 1.7 | 1.7 | 0.00 | 0.09 | 0.00 | 86 | 1014.8 |
| 20260503071014 | 0 | 326 | 0.9 | 0.9 | 0.00 | 0.00 | 0.00 | 1019.3 | |
| 20260503070511 | 0 | 2 | 0.0 | 0.0 | 0.00 | 0.00 | 0.00 | 1019.2 | |
| 20260503070204 | 46 | 269 | 1.7 | 2.6 | 0.00 | 0.09 | 0.00 | 86 | 1014.6 |
| 20260503060204 | 48 | 254 | 4.3 | 5.2 | 0.00 | 0.09 | 0.00 | 82 | 1014.3 |
| 20260503054922 | 0 | 341 | 0.0 | 0.0 | 0.00 | 0.00 | 0.00 | 1018.9 | |
| 20260503054704 | 47 | 264 | 1.7 | 2.6 | 0.00 | 0.09 | 0.00 | 84 | 1014.2 |
| 20260503054554 | 60 | 192 | 3.5 | 7.0 | 0.00 | 0.07 | 0.00 | 92 | 1012.7 |
| 20260503054419 | 0 | 353 | 0.0 | 0.0 | 0.00 | 0.00 | 0.00 | 1018.8 | |
| 20260503054203 | 47 | 262 | 1.7 | 2.6 | 0.00 | 0.09 | 0.00 | 82 | 1014.1 |
| 20260503053917 | 0 | 2 | 0.0 | 0.0 | 0.00 | 0.00 | 0.00 | 1018.9 | |
| 20260503053704 | 48 | 262 | 1.7 | 1.7 | 0.00 | 0.09 | 0.00 | 82 | 1014.1 |
| 20260503053414 | 0 | 6 | 0.0 | 0.0 | 0.00 | 0.00 | 0.00 | 1018.9 | |
| 20260503053204 | 48 | 254 | 1.7 | 1.7 | 0.00 | 0.09 | 0.00 | 82 | 1014.2 |
| 20260503053040 | 59 | 170 | 4.3 | 7.0 | 0.00 | 0.07 | 0.00 | 92 | 1012.6 |
| 20260503052910 | 0 | 352 | 0.0 | 0.0 | 0.00 | 0.00 | 0.00 | 1018.8 | |
| 20260503052704 | 48 | 276 | 0.9 | 2.6 | 0.00 | 0.09 | 0.00 | 83 | 1014.3 |
| 20260503052408 | 0 | 350 | 0.0 | 0.0 | 0.00 | 0.00 | 0.00 | 1018.8 | |
| 20260503052204 | 48 | 264 | 1.7 | 1.7 | 0.00 | 0.09 | 0.00 | 82 | 1014.4 |
| 20260503051904 | 0 | 335 | 0.0 | 0.0 | 0.00 | 0.00 | 0.00 | 1018.8 | |
| 20260503051704 | 49 | 266 | 1.7 | 1.7 | 0.00 | 0.09 | 0.00 | 82 | 1014.3 |
| 20260503051539 | 59 | 159 | 3.5 | 7.0 | 0.00 | 0.07 | 0.00 | 92 | 1012.5 |
| 20260503051400 | 0 | 356 | 0.0 | 0.0 | 0.00 | 0.00 | 0.00 | 1018.7 | |
| 20260503050857 | 0 | 19 | 0.9 | 0.9 | 0.00 | 0.00 | 0.00 | 1018.8 | |
| 20260503050353 | 0 | 358 | 0.0 | 0.0 | 0.00 | 0.00 | 0.00 | 1018.8 | |
| 20260503050204 | 49 | 255 | 1.7 | 2.6 | 0.00 | 0.09 | 0.00 | 81 | 1014.4 |
| 20260503050044 | 58 | 169 | 1.7 | 6.1 | 0.00 | 0.07 | 0.00 | 92 | 1012.4 |
| 20260503045851 | 0 | 359 | 0.0 | 0.0 | 0.00 | 0.76 | 0.76 | 1018.7 | |
| 20260503045704 | 50 | 237 | 0.9 | 1.7 | 0.00 | 0.09 | 0.00 | 79 | 1014.2 |
| 20260503045348 | 0 | 0 | 0.0 | 0.0 | 0.00 | 0.76 | 0.76 | 1018.6 | |
| 20260503045204 | 50 | 263 | 0.9 | 1.7 | 0.00 | 0.09 | 0.00 | 79 | 1014.3 |
| 20260503044845 | 0 | 357 | 0.0 | 0.0 | 0.00 | 0.76 | 0.76 | 1018.7 | |
| 20260503044549 | 58 | 170 | 4.3 | 7.0 | 0.00 | 0.07 | 0.00 | 92 | 1012.3 |
| 20260503044342 | 0 | 332 | 0.0 | 0.0 | 0.00 | 0.76 | 0.76 | 1018.6 | |
| 20260503044204 | 51 | 262 | 0.9 | 1.7 | 0.00 | 0.09 | 0.00 | 78 | 1014.4 |
| 20260503043839 | 0 | 318 | 0.0 | 0.9 | 0.00 | 0.76 | 0.76 | 1018.6 | |
| 20260503043703 | 51 | 254 | 0.9 | 1.7 | 0.00 | 0.09 | 0.00 | 77 | 1014.4 |
| 20260503043336 | 0 | 339 | 0.0 | 0.0 | 0.00 | 0.76 | 0.76 | 1018.6 | |
| 20260503043044 | 58 | 163 | 3.5 | 7.8 | 0.00 | 0.07 | 0.00 | 92 | 1012.3 |
| 20260503042832 | 0 | 331 | 0.0 | 0.0 | 0.00 | 0.76 | 0.76 | 1018.6 | |
| 20260503042703 | 51 | 267 | 1.7 | 1.7 | 0.00 | 0.09 | 0.00 | 75 | 1014.4 |
| 20260503042329 | 0 | 325 | 0.0 | 0.9 | 0.00 | 0.76 | 0.76 | 1018.6 | |
| 20260503042204 | 51 | 255 | 1.7 | 1.7 | 0.00 | 0.09 | 0.00 | 75 | 1014.3 |
| 20260503041825 | 0 | 334 | 0.0 | 0.0 | 0.00 | 0.76 | 0.76 | 1018.6 | |
| 20260503041703 | 51 | 271 | 1.7 | 2.6 | 0.00 | 0.09 | 0.00 | 77 | 1014.6 |
| 20260503041535 | 58 | 161 | 3.5 | 6.1 | 0.00 | 0.07 | 0.00 | 92 | 1012.4 |
| 20260503041322 | 0 | 354 | 0.0 | 0.0 | 0.00 | 0.76 | 0.76 | 1018.4 | |
| 20260503041203 | 51 | 265 | 1.7 | 1.7 | 0.00 | 0.09 | 0.00 | 78 | 1014.4 |
| 20260503040820 | 0 | 352 | 0.0 | 0.0 | 0.00 | 0.76 | 0.76 | 1018.5 | |
| 20260503040703 | 51 | 268 | 0.9 | 1.7 | 0.00 | 0.09 | 0.00 | 79 | 1014.3 |
| 20260503040317 | 0 | 358 | 0.0 | 0.0 | 0.00 | 0.76 | 0.76 | 1018.6 | |
| 20260503040204 | 51 | 245 | 1.7 | 2.6 | 0.00 | 0.09 | 0.00 | 78 | 1014.5 |
| 20260503040039 | 58 | 138 | 3.5 | 7.0 | 0.00 | 0.07 | 0.00 | 92 | 1012.4 |
| 20260503035814 | 0 | 359 | 0.0 | 0.0 | 0.00 | 0.76 | 0.76 | 1018.5 | |
| 20260503035311 | 0 | 344 | 0.0 | 0.0 | 0.00 | 0.76 | 0.76 | 1018.5 | |
| 20260503035204 | 51 | 261 | 1.7 | 1.7 | 0.00 | 0.09 | 0.09 | 78 | 1014.4 |
| 20260503034808 | 0 | 328 | 0.0 | 0.0 | 0.00 | 0.76 | 0.76 | 1018.5 | |
| 20260503034704 | 51 | 272 | 1.7 | 1.7 | 0.00 | 0.09 | 0.09 | 77 | 1014.5 |
| 20260503034534 | 58 | 176 | 5.2 | 7.8 | 0.00 | 0.07 | 0.00 | 92 | 1012.6 |
| 20260503034305 | 0 | 326 | 0.0 | 0.0 | 0.00 | 0.76 | 0.76 | 1018.3 | |
| 20260503034203 | 51 | 271 | 1.7 | 2.6 | 0.00 | 0.09 | 0.09 | 77 | 1014.5 |
| 20260503033803 | 0 | 352 | 0.0 | 0.0 | 0.00 | 0.76 | 0.76 | 1018.2 | |
| 20260503033703 | 52 | 253 | 1.7 | 1.7 | 0.00 | 0.09 | 0.09 | 76 | 1014.4 |
| 20260503033300 | 0 | 336 | 0.0 | 0.0 | 0.00 | 0.76 | 0.76 | 1018.3 | |
| 20260503033203 | 52 | 249 | 1.7 | 1.7 | 0.00 | 0.09 | 0.09 | 74 | 1014.4 |
| 20260503033032 | 57 | 156 | 4.3 | 7.0 | 0.00 | 0.07 | 0.00 | 92 | 1012.6 |
| 20260503032758 | 0 | 357 | 0.0 | 0.0 | 0.00 | 0.76 | 0.76 | 1018.1 | |
| 20260503032704 | 52 | 260 | 1.7 | 2.6 | 0.00 | 0.09 | 0.09 | 74 | 1014.3 |
| 20260503032257 | 0 | 345 | 0.0 | 0.0 | 0.00 | 0.76 | 0.76 | 1018.2 | |
| 20260503032203 | 52 | 193 | 0.9 | 2.6 | 0.00 | 0.09 | 0.09 | 74 | 1014.2 |
| 20260503031753 | 0 | 355 | 0.0 | 0.0 | 0.00 | 0.76 | 0.76 | 1018.0 | |
| 20260503031703 | 52 | 236 | 1.7 | 2.6 | 0.00 | 0.09 | 0.09 | 75 | 1014.3 |
| 20260503031534 | 57 | 134 | 3.5 | 7.0 | 0.00 | 0.07 | 0.00 | 92 | 1012.7 |
| 20260503031251 | 0 | 349 | 0.0 | 0.0 | 0.00 | 0.76 | 0.76 | 1018.0 | |
| 20260503031204 | 52 | 245 | 0.9 | 1.7 | 0.00 | 0.09 | 0.09 | 74 | 1014.2 |
| 20260503030747 | 0 | 347 | 0.0 | 0.0 | 0.00 | 0.76 | 0.76 | 1017.9 | |
| 20260503030244 | 0 | 349 | 0.0 | 0.0 | 0.00 | 0.76 | 0.76 | 1017.9 | |
| 20260503030203 | 52 | 236 | 0.9 | 1.7 | 0.00 | 0.09 | 0.09 | 71 | 1014.2 |
| 20260503030030 | 57 | 143 | 3.5 | 5.2 | 0.00 | 0.07 | 0.00 | 91 | 1012.9 |
| 20260503025741 | 0 | 350 | 0.0 | 0.0 | 0.00 | 0.76 | 0.76 | 1017.9 | |
| 20260503025704 | 52 | 274 | 0.9 | 1.7 | 0.00 | 0.09 | 0.09 | 73 | 1014.2 |
| 20260503025238 | 0 | 312 | 0.0 | 0.9 | 0.00 | 0.76 | 0.76 | 1017.8 | |
| 20260503025203 | 52 | 261 | 0.9 | 1.7 | 0.00 | 0.09 | 0.09 | 73 | 1014.2 |
| 20260503024735 | 0 | 340 | 0.0 | 0.0 | 0.00 | 0.76 | 0.76 | 1017.8 | |
| 20260503024704 | 52 | 233 | 0.9 | 1.7 | 0.00 | 0.09 | 0.09 | 72 | 1014.5 |
| 20260503024530 | 56 | 141 | 3.5 | 4.3 | 0.00 | 0.07 | 0.00 | 91 | 1012.8 |
| 20260503024232 | 0 | 330 | 0.9 | 0.9 | 0.00 | 0.76 | 0.76 | 1017.9 | |
| 20260503024204 | 52 | 219 | 0.9 | 1.7 | 0.00 | 0.09 | 0.09 | 73 | 1014.4 |
| 20260503023729 | 0 | 353 | 0.0 | 0.0 | 0.00 | 0.76 | 0.76 | 1017.7 | |
| 20260503023704 | 53 | 243 | 1.7 | 1.7 | 0.00 | 0.09 | 0.09 | 74 | 1014.5 |
| 20260503023226 | 0 | 359 | 0.0 | 0.0 | 0.00 | 0.76 | 0.76 | 1017.6 | |
| 20260503023203 | 53 | 253 | 1.7 | 2.6 | 0.00 | 0.09 | 0.09 | 73 | 1014.6 |
| 20260503023029 | 56 | 127 | 2.6 | 5.2 | 0.00 | 0.07 | 0.00 | 91 | 1012.8 |
| 20260503022722 | 0 | 359 | 0.0 | 0.0 | 0.00 | 0.76 | 0.76 | 1017.5 | |
| 20260503022704 | 53 | 250 | 1.7 | 1.7 | 0.00 | 0.09 | 0.09 | 73 | 1014.4 |
| 20260503022222 | 0 | 351 | 0.0 | 0.0 | 0.00 | 0.76 | 0.76 | 1017.5 | |
| 20260503022203 | 53 | 251 | 1.7 | 1.7 | 0.00 | 0.09 | 0.09 | 72 | 1014.4 |
| 20260503021719 | 0 | 0 | 0.0 | 0.0 | 0.00 | 0.76 | 0.76 | 1017.7 | |
| 20260503021704 | 53 | 254 | 0.9 | 1.7 | 0.00 | 0.09 | 0.09 | 75 | 1014.4 |
| 20260503021527 | 56 | 120 | 2.6 | 4.3 | 0.00 | 0.07 | 0.00 | 91 | 1012.9 |
| 20260503021215 | 0 | 2 | 0.0 | 0.0 | 0.00 | 0.76 | 0.76 | 1017.5 | |
| 20260503021203 | 53 | 246 | 1.7 | 1.7 | 0.00 | 0.09 | 0.09 | 73 | 1014.5 |
| 20260503020713 | 0 | 354 | 0.0 | 0.0 | 0.00 | 0.76 | 0.76 | 1017.3 | |
| 20260503020704 | 53 | 249 | 0.9 | 1.7 | 0.00 | 0.09 | 0.09 | 70 | 1014.3 |
| 20260503020210 | 0 | 338 | 0.0 | 0.0 | 0.00 | 0.76 | 0.76 | 1017.4 | |
| 20260503020204 | 53 | 252 | 1.7 | 1.7 | 0.00 | 0.09 | 0.09 | 72 | 1014.4 |
| 20260503020027 | 56 | 124 | 0.9 | 1.7 | 0.00 | 0.07 | 0.00 | 91 | 1013.0 |
| 20260503015707 | 0 | 348 | 0.0 | 0.0 | 0.00 | 0.76 | 0.76 | 1017.4 | |
| 20260503015704 | 53 | 268 | 1.7 | 2.6 | 0.00 | 0.09 | 0.09 | 67 | 1014.4 |
| 20260503015204 | 0 | 2 | 0.0 | 0.0 | 0.00 | 0.76 | 0.76 | 1017.4 | |
| 20260503014704 | 54 | 258 | 1.7 | 1.7 | 0.00 | 0.09 | 0.09 | 66 | 1014.3 |
| 20260503014700 | 0 | 1 | 0.0 | 0.0 | 0.00 | 0.76 | 0.76 | 1017.2 | |
| 20260503014528 | 56 | 124 | 0.9 | 1.7 | 0.00 | 0.07 | 0.00 | 91 | 1013.0 |
| 20260503014203 | 54 | 264 | 1.7 | 2.6 | 0.00 | 0.09 | 0.09 | 66 | 1014.4 |
| 20260503014158 | 0 | 356 | 0.0 | 0.0 | 0.00 | 0.76 | 0.76 | 1017.0 | |
| 20260503013704 | 54 | 260 | 1.7 | 2.6 | 0.00 | 0.09 | 0.09 | 66 | 1014.3 |
| 20260503013655 | 0 | 353 | 0.0 | 0.0 | 0.00 | 0.76 | 0.76 | 1017.2 | |
| 20260503013153 | 0 | 357 | 0.0 | 0.0 | 0.00 | 0.76 | 0.76 | 1016.9 | |
| 20260503013025 | 56 | 124 | 1.7 | 2.6 | 0.00 | 0.07 | 0.00 | 91 | 1013.1 |
| 20260503012704 | 54 | 255 | 0.9 | 1.7 | 0.00 | 0.09 | 0.09 | 64 | 1013.9 |
| 20260503012649 | 0 | 358 | 0.0 | 0.0 | 0.00 | 0.76 | 0.76 | 1016.9 | |
| 20260503012203 | 54 | 253 | 0.9 | 1.7 | 0.00 | 0.09 | 0.09 | 64 | 1013.9 |
| 20260503012147 | 0 | 6 | 0.0 | 0.0 | 0.00 | 0.76 | 0.76 | 1016.7 | |
| 20260503011643 | 0 | 355 | 0.0 | 0.0 | 0.00 | 0.76 | 0.76 | 1016.8 | |
| 20260503011524 | 56 | 134 | 0.9 | 2.6 | 0.00 | 0.07 | 0.00 | 91 | 1013.4 |
| 20260503011204 | 54 | 269 | 0.9 | 2.6 | 0.00 | 0.09 | 0.09 | 63 | 1014.0 |
| 20260503011140 | 0 | 6 | 0.0 | 0.0 | 0.00 | 0.76 | 0.76 | 1016.6 | |
| 20260503010636 | 0 | 358 | 0.0 | 0.0 | 0.00 | 0.76 | 0.76 | 1016.5 | |
| 20260503010204 | 54 | 321 | 1.7 | 2.6 | 0.00 | 0.09 | 0.09 | 62 | 1014.1 |
| 20260503010134 | 0 | 56 | 0.0 | 0.0 | 0.00 | 0.76 | 0.76 | 1016.6 | |
| 20260503010027 | 56 | 126 | 1.7 | 3.5 | 0.00 | 0.07 | 0.00 | 90 | 1013.4 |
| 20260503005704 | 54 | 230 | 0.9 | 1.7 | 0.00 | 0.09 | 0.09 | 63 | 1014.0 |
| 20260503005631 | 0 | 1 | 0.0 | 0.0 | 0.00 | 0.76 | 0.76 | 1016.4 | |
| 20260503005128 | 0 | 359 | 0.0 | 0.0 | 0.00 | 0.76 | 0.76 | 1016.3 | |
| 20260503004704 | 54 | 276 | 0.9 | 2.6 | 0.00 | 0.09 | 0.09 | 63 | 1013.9 |
| 20260503004624 | 0 | 14 | 0.9 | 0.9 | 0.00 | 0.76 | 0.76 | 1016.2 | |
| 20260503004519 | 56 | 136 | 2.6 | 4.3 | 0.00 | 0.07 | 0.00 | 90 | 1013.6 |
| 20260503004204 | 54 | 234 | 0.9 | 2.6 | 0.00 | 0.09 | 0.09 | 61 | 1014.0 |
| 20260503004123 | 0 | 17 | 0.9 | 0.9 | 0.00 | 0.76 | 0.76 | 1016.0 | |
| 20260503003619 | 0 | 19 | 0.0 | 0.9 | 0.00 | 0.76 | 0.76 | 1015.8 | |
| 20260503003203 | 54 | 280 | 1.7 | 2.6 | 0.00 | 0.09 | 0.09 | 60 | 1013.6 |
| 20260503003116 | 0 | 73 | 0.0 | 0.9 | 0.00 | 0.76 | 0.76 | 1015.8 | |
| 20260503003019 | 57 | 149 | 2.6 | 6.1 | 0.00 | 0.07 | 0.00 | 90 | 1013.7 |
| 20260503002613 | 0 | 39 | 0.0 | 0.0 | 0.00 | 0.76 | 0.76 | 1015.7 | |
| 20260503002203 | 55 | 264 | 1.7 | 2.6 | 0.00 | 0.09 | 0.09 | 57 | 1013.5 |
| 20260503002110 | 0 | 15 | 0.9 | 1.7 | 0.00 | 0.76 | 0.76 | 1015.5 | |
| 20260503001704 | 55 | 46 | 1.7 | 2.6 | 0.00 | 0.09 | 0.09 | 56 | 1013.6 |
| 20260503001606 | 0 | 325 | 0.0 | 0.0 | 0.00 | 0.76 | 0.76 | 1015.5 | |
| 20260503001516 | 57 | 124 | 3.5 | 5.2 | 0.00 | 0.07 | 0.00 | 90 | 1013.7 |
| 20260503001103 | 0 | 9 | 0.9 | 0.9 | 0.00 | 0.76 | 0.76 | 1015.4 | |
| 20260503000703 | 55 | 257 | 0.9 | 4.3 | 0.00 | 0.09 | 0.09 | 53 | 1013.5 |
| 20260503000601 | 0 | 333 | 0.9 | 1.7 | 0.00 | 0.76 | 0.76 | 1015.4 | |
| 20260503000204 | 55 | 264 | 1.7 | 2.6 | 0.00 | 0.09 | 0.09 | 52 | 1013.4 |
| 20260503000058 | 0 | 12 | 0.9 | 0.9 | 0.00 | 0.76 | 0.76 | 1015.3 | |
| 20260503000026 | 58 | 118 | 0.9 | 2.6 | 0.00 | 0.07 | 0.00 | 90 | 1013.8 |
| 20260502235703 | 55 | 247 | 0.9 | 2.6 | 0.00 | 0.09 | 0.09 | 52 | 1013.1 |
| 20260502235554 | 0 | 76 | 1.7 | 2.6 | 0.00 | 0.76 | 0.76 | 1015.1 | |
| 20260502235203 | 55 | 255 | 1.7 | 4.3 | 0.00 | 0.09 | 0.09 | 52 | 1013.3 |
| 20260502235052 | 0 | 12 | 1.7 | 1.7 | 0.00 | 0.76 | 0.76 | 1015.3 | |
| 20260502234704 | 55 | 248 | 1.7 | 4.3 | 0.00 | 0.09 | 0.09 | 49 | 1013.4 |
| 20260502234548 | 0 | 352 | 0.9 | 1.7 | 0.00 | 0.76 | 0.76 | 1015.0 | |
| 20260502234512 | 58 | 128 | 1.7 | 3.5 | 0.00 | 0.07 | 0.00 | 90 | 1014.0 |
| 20260502234046 | 0 | 307 | 3.5 | 5.2 | 0.00 | 0.76 | 0.76 | 1015.0 | |
| 20260502233704 | 55 | 339 | 1.7 | 4.3 | 0.00 | 0.09 | 0.09 | 50 | 1013.1 |
| 20260502233546 | 0 | 29 | 4.3 | 6.1 | 0.00 | 0.76 | 0.76 | 1014.8 | |
| 20260502233203 | 55 | 301 | 2.6 | 5.2 | 0.00 | 0.09 | 0.09 | 51 | 1013.1 |
| 20260502233043 | 0 | 280 | 0.9 | 1.7 | 0.00 | 0.76 | 0.76 | 1014.8 | |
| 20260502233008 | 59 | 123 | 2.6 | 5.2 | 0.00 | 0.07 | 0.00 | 90 | 1014.1 |
| 20260502232539 | 0 | 13 | 0.0 | 0.0 | 0.00 | 0.76 | 0.76 | 1014.9 | |
| 20260502232204 | 55 | 343 | 1.7 | 4.3 | 0.00 | 0.09 | 0.09 | 56 | 1013.1 |
| 20260502232037 | 0 | 22 | 1.7 | 1.7 | 0.00 | 0.76 | 0.76 | 1014.7 | |
| 20260502231703 | 55 | 269 | 0.9 | 2.6 | 0.00 | 0.09 | 0.09 | 57 | 1013.3 |
| 20260502231533 | 0 | 46 | 4.3 | 6.1 | 0.00 | 0.76 | 0.76 | 1014.7 | |
| 20260502231506 | 59 | 130 | 2.6 | 4.3 | 0.00 | 0.07 | 0.00 | 90 | 1014.2 |
| 20260502231203 | 55 | 270 | 1.7 | 2.6 | 0.00 | 0.09 | 0.09 | 56 | 1013.3 |
| 20260502231032 | 0 | 47 | 2.6 | 5.2 | 0.00 | 0.76 | 0.76 | 1014.7 | |
| 20260502230704 | 55 | 268 | 1.7 | 4.3 | 0.00 | 0.09 | 0.09 | 57 | 1013.0 |
| 20260502230530 | 0 | 69 | 2.6 | 4.3 | 0.00 | 0.76 | 0.76 | 1014.6 | |
| 20260502230204 | 55 | 288 | 1.7 | 2.6 | 0.00 | 0.09 | 0.09 | 58 | 1013.1 |
| 20260502230028 | 0 | 37 | 1.7 | 1.7 | 0.00 | 0.76 | 0.76 | 1014.6 | |
| 20260502230006 | 59 | 144 | 0.9 | 4.3 | 0.00 | 0.07 | 0.00 | 89 | 1014.2 |
| 20260502225703 | 56 | 359 | 2.6 | 6.1 | 0.00 | 0.09 | 0.09 | 57 | 1013.1 |
| 20260502225523 | 0 | 335 | 2.6 | 2.6 | 0.00 | 0.76 | 0.76 | 1014.7 | |
| 20260502225203 | 56 | 284 | 1.7 | 4.3 | 0.00 | 0.09 | 0.09 | 59 | 1013.1 |
| 20260502225020 | 0 | 348 | 1.7 | 2.6 | 0.00 | 0.76 | 0.76 | 1014.8 | |
| 20260502224704 | 56 | 259 | 1.7 | 2.6 | 0.00 | 0.09 | 0.09 | 60 | 1013.0 |
| 20260502224516 | 0 | 20 | 1.7 | 1.7 | 0.00 | 0.76 | 0.76 | 1014.5 | |
| 20260502224504 | 59 | 141 | 1.7 | 3.5 | 0.00 | 0.07 | 0.00 | 89 | 1014.4 |
| 20260502224014 | 0 | 327 | 0.9 | 0.9 | 0.00 | 0.76 | 0.76 | 1014.5 | |
| 20260502223703 | 56 | 332 | 2.6 | 7.0 | 0.00 | 0.09 | 0.09 | 56 | 1013.1 |
| 20260502223511 | 0 | 229 | 0.9 | 1.7 | 0.00 | 0.76 | 0.76 | 1014.5 | |
| 20260502223204 | 56 | 35 | 1.7 | 7.0 | 0.00 | 0.09 | 0.09 | 57 | 1013.3 |
| 20260502223009 | 0 | 25 | 0.9 | 1.7 | 0.00 | 0.76 | 0.76 | 1014.3 | |
| 20260502222704 | 56 | 264 | 1.7 | 4.3 | 0.00 | 0.09 | 0.09 | 55 | 1013.4 |
| 20260502222506 | 0 | 305 | 1.7 | 1.7 | 0.00 | 0.76 | 0.76 | 1014.3 | |
| 20260502222203 | 56 | 298 | 0.9 | 6.1 | 0.00 | 0.09 | 0.09 | 55 | 1013.4 |
| 20260502222003 | 0 | 313 | 1.7 | 1.7 | 0.00 | 0.76 | 0.76 | 1014.3 | |
| 20260502221703 | 56 | 358 | 1.7 | 5.2 | 0.00 | 0.09 | 0.09 | 55 | 1013.4 |
| 20260502221500 | 59 | 142 | 1.7 | 3.5 | 0.01 | 0.07 | 0.00 | 89 | 1014.7 |
| 20260502221458 | 0 | 335 | 0.9 | 0.9 | 0.00 | 0.76 | 0.76 | 1014.4 | |
| 20260502220955 | 0 | 297 | 0.9 | 0.9 | 0.00 | 0.76 | 0.76 | 1014.2 | |
| 20260502220704 | 56 | 318 | 1.7 | 6.1 | 0.00 | 0.09 | 0.09 | 56 | 1013.3 |
| 20260502220451 | 0 | 149 | 0.9 | 2.6 | 0.00 | 0.76 | 0.76 | 1014.3 | |
| 20260502220204 | 56 | 15 | 1.7 | 7.0 | 0.00 | 0.09 | 0.09 | 59 | 1013.2 |
| 20260502220110 | 59 | 173 | 1.7 | 3.5 | 0.01 | 0.07 | 0.00 | 88 | 1014.6 |
| 20260502215948 | 0 | 105 | 2.6 | 5.2 | 0.00 | 0.76 | 0.76 | 1014.0 | |
| 20260502215703 | 57 | 320 | 2.6 | 7.0 | 0.00 | 0.09 | 0.09 | 61 | 1013.4 |
| 20260502215445 | 0 | 224 | 2.6 | 5.2 | 0.00 | 0.76 | 0.76 | 1013.9 | |
| 20260502214942 | 0 | 127 | 3.5 | 5.2 | 0.00 | 0.76 | 0.76 | 1014.2 | |
| 20260502214558 | 59 | 160 | 1.7 | 4.3 | 0.01 | 0.07 | 0.07 | 88 | 1014.6 |
| 20260502214439 | 0 | 51 | 3.5 | 5.2 | 0.00 | 0.76 | 0.76 | 1013.9 | |
| 20260502214203 | 57 | 8 | 0.9 | 4.3 | 0.00 | 0.09 | 0.09 | 63 | 1013.1 |
| 20260502213936 | 0 | 309 | 4.3 | 7.0 | 0.00 | 0.76 | 0.76 | 1013.9 | |
| 20260502213704 | 57 | 224 | 2.6 | 6.1 | 0.00 | 0.09 | 0.09 | 62 | 1013.2 |
| 20260502213433 | 0 | 25 | 0.9 | 0.9 | 0.00 | 0.76 | 0.76 | 1013.7 | |
| 20260502213204 | 58 | 356 | 1.7 | 4.3 | 0.00 | 0.09 | 0.09 | 62 | 1013.0 |
| 20260502213058 | 59 | 182 | 3.5 | 6.1 | 0.00 | 0.06 | 0.06 | 88 | 1014.7 |
| 20260502212932 | 0 | 114 | 2.6 | 4.3 | 0.00 | 0.76 | 0.76 | 1013.8 | |
| 20260502212703 | 57 | 0 | 3.5 | 7.8 | 0.00 | 0.09 | 0.09 | 61 | 1013.0 |
| 20260502212430 | 0 | 292 | 3.5 | 4.3 | 0.00 | 0.76 | 0.76 | 1013.7 | |
| 20260502211927 | 0 | 347 | 2.6 | 2.6 | 0.00 | 0.76 | 0.76 | 1013.8 | |
| 20260502211703 | 58 | 22 | 2.6 | 7.0 | 0.00 | 0.09 | 0.09 | 60 | 1012.9 |
| 20260502211558 | 59 | 182 | 3.5 | 7.0 | 0.00 | 0.06 | 0.06 | 87 | 1014.9 |
| 20260502211423 | 0 | 343 | 2.6 | 4.3 | 0.00 | 0.76 | 0.76 | 1013.6 | |
| 20260502211203 | 58 | 9 | 1.7 | 6.1 | 0.00 | 0.09 | 0.09 | 61 | 1012.9 |
| 20260502210920 | 0 | 120 | 3.5 | 7.0 | 0.00 | 0.76 | 0.76 | 1013.9 | |
| 20260502210704 | 58 | 355 | 2.6 | 5.2 | 0.00 | 0.09 | 0.09 | 60 | 1012.8 |
| 20260502210417 | 0 | 346 | 0.9 | 0.9 | 0.00 | 0.76 | 0.76 | 1013.7 | |
| 20260502210204 | 58 | 70 | 0.9 | 4.3 | 0.00 | 0.09 | 0.09 | 59 | 1012.7 |
| 20260502210122 | 60 | 159 | 4.3 | 8.7 | 0.00 | 0.06 | 0.06 | 87 | 1015.0 |
| 20260502205914 | 0 | 318 | 2.6 | 2.6 | 0.00 | 0.76 | 0.76 | 1013.8 | |
| 20260502205410 | 0 | 301 | 1.7 | 2.6 | 0.00 | 0.76 | 0.76 | 1013.9 | |
| 20260502205203 | 57 | 315 | 1.7 | 10.4 | 0.00 | 0.09 | 0.09 | 59 | 1012.9 |
| 20260502204908 | 0 | 328 | 2.6 | 2.6 | 0.00 | 0.76 | 0.76 | 1013.8 | |
| 20260502204557 | 60 | 150 | 4.3 | 8.7 | 0.00 | 0.06 | 0.06 | 86 | 1015.0 |
| 20260502204404 | 0 | 284 | 0.9 | 0.9 | 0.00 | 0.76 | 0.76 | 1013.8 | |
| 20260502204203 | 57 | 341 | 2.6 | 6.1 | 0.00 | 0.09 | 0.09 | 57 | 1012.9 |
| 20260502203902 | 0 | 84 | 2.6 | 5.2 | 0.00 | 0.76 | 0.76 | 1013.8 | |
| 20260502203703 | 57 | 340 | 2.6 | 10.4 | 0.00 | 0.09 | 0.09 | 58 | 1012.8 |
| 20260502203359 | 74 | 125 | 1.7 | 1.7 | 0.00 | 0.76 | 0.76 | 58 | 1013.7 |
| 20260502203203 | 57 | 24 | 2.6 | 11.3 | 0.00 | 0.09 | 0.09 | 56 | 1012.8 |
| 20260502203056 | 60 | 152 | 4.3 | 7.0 | 0.00 | 0.06 | 0.06 | 86 | 1014.8 |
| 20260502202855 | 76 | 288 | 1.7 | 1.7 | 0.00 | 0.76 | 0.76 | 54 | 1013.9 |
| 20260502202703 | 58 | 21 | 5.2 | 11.3 | 0.00 | 0.09 | 0.09 | 57 | 1012.8 |
| 20260502202352 | 74 | 320 | 1.7 | 2.6 | 0.00 | 0.76 | 0.76 | 57 | 1013.8 |
| 20260502202204 | 58 | 14 | 3.5 | 6.1 | 0.00 | 0.09 | 0.09 | 56 | 1012.9 |
| 20260502201850 | 73 | 40 | 2.6 | 4.3 | 0.00 | 0.76 | 0.76 | 60 | 1013.9 |
| 20260502201703 | 58 | 249 | 3.5 | 7.0 | 0.00 | 0.09 | 0.09 | 57 | 1012.8 |
| 20260502201556 | 60 | 138 | 5.2 | 8.7 | 0.00 | 0.06 | 0.06 | 86 | 1014.7 |
| 20260502201346 | 0 | 318 | 3.5 | 5.2 | 0.00 | 0.76 | 0.76 | 1014.0 | |
| 20260502201203 | 58 | 343 | 1.7 | 7.0 | 0.00 | 0.09 | 0.09 | 61 | 1012.8 |
| 20260502200842 | 72 | 20 | 2.6 | 4.3 | 0.00 | 0.76 | 0.76 | 63 | 1014.0 |
| 20260502200704 | 58 | 22 | 4.3 | 7.8 | 0.00 | 0.09 | 0.09 | 60 | 1013.0 |